Volver al catálogo

STARLINK-5985

ActivoComunicacionesVLEO
NORAD 56451·PAYLOAD·🇺🇸 United States

Lanzado May 10, 2023 desde Vandenberg Space Force Base

Loading…

Próximos Pases (próximas 24 horas)

TLE

ActualizadoSource: CelesTrak SupGP

Época: Sep 15, 2026, 03:05 UTC

1 56451C 23064D   26258.12895833  .00021485  00000+0  18009-2 0  2585
2 56451  70.0024  26.9839 0003280 265.9924 251.1350 14.98312370    19

Sigue STARLINK-5985 en tiempo real con AllMySat

Download on the App Store